Location: Sungai Apap
(2.6167°N, 113.3833°E)
Time: 14:43:15
(UTC+00:00)

Cosmos 1464 Rocket - Pass Details

Date: 25 May 2024
Orbit: 951 x 1001 km, 82.9° (Epoch: 14 June)

Event Time Altitude Azimuth Distance (km) Brightness Sun altitude
Rises 12:21:47 0° 3° (N) 3,642 7.3 -26.3°
Reaches altitude 10° 12:24:19 10° 6° (N) 2,691 6.5 -26.9°
Enters shadow 12:29:30 57° 46° (NE) 1,113 4.1 -28.1°
